Location: Marcé
(47.5801°N, 0.3280°W)
Time: 12:12:54
(UTC+01:00)

Vanguard 3 - Pass Details

Date: 05 December 2021
Orbit: 508 x 3260 km, 33.3° (Epoch: 17 January)

Event Time Altitude Azimuth Distance (km) Brightness Sun altitude
Exits shadow 02:07:53 21° 129° (SE) 5,326 11.1 -60.5°
Drops below altitude 10° 02:17:44 10° 98° (E) 6,034 11.7 -59.5°
Sets 02:23:49 0° 85° (E) 6,793 12.2 -58.8°
